Location: Krakow
(50.0830°N, 19.9170°E)
Time: 07:09:49
(UTC+02:00)

A-11 Canister half - Pass Details

Date: 16 March 2026
Orbit: 1523 x 1684 km, 47.3° (Epoch: 18 April)

Event Time Altitude Azimuth Distance (km) Brightness Sun altitude
Rises 14:52:21 0° 287° (WNW) 4,786 12.1 25.2°
Reaches altitude 10° 14:55:41 10° 281° (W) 3,777 11.8 24.8°
Maximum altitude 15:04:21 42° 215° (SW) 2,096 11.2 23.6°
Drops below altitude 10° 15:12:49 10° 149° (SSE) 3,686 11.1 22.5°
Sets 15:16:02 0° 143° (SE) 4,661 11.5 22.1°
